Weather History for Newark, NJ

Change the Weather History Date:

Friday, February 22, 2013

  Actual Average Record
Temperature  
Mean Temperature 31 °F 36 °F  
Max Temperature 39 °F 44 °F 70 °F (1997)
Min Temperature 23 °F 28 °F 8 °F (1963)
Degree Days  
Heating Degree Days 34 29  
Month to date heating degree days 718 682  
Since 1 July heating degree days 3239 3466  
Cooling Degree Days 0 0  
Month to date cooling degree days 0 0  
Year to date cooling degree days 0 0  
Moisture  
Dew Point 22 °F    
Average Humidity 65    
Maximum Humidity 82    
Minimum Humidity 48    
Precipitation  
Precipitation T in 0.10 in 1.53 in (2003)
Month to date precipitation 2.00 2.22  
Year to date precipitation 4.49 5.76  
Snow  
Snow T in 0.40 in 6.80 in (2008)
Month to date snowfall 10.8 7.6  
Since 1 July snowfall 20.7 21.3  
Snow Depth 0.00 in    
Sea Level Pressure  
Sea Level Pressure 30.34 in    
Wind  
Wind Speed 7 mph (ENE)    
Max Wind Speed 17 mph    
Max Gust Speed 22 mph    
Visibility 10 miles    
Events Snow    
T = Trace of Precipitation, MM = Missing Value Source: NWS Daily Summary

Daily Weather History Graph

Daily Weather History Graph

Search for Another Location

Airport:

Trip Planner

Search our weather history database for the weather conditions in past years. The results will help you decide how hot, cold, wet, or windy it might be!

Date:

Astronomy

Feb. 22, 2013 Rise Set
Actual Time 6:40 AM EST 5:40 PM EST
Civil Twilight 6:12 AM EST 6:07 PM EST
Nautical Twilight 5:41 AM EST 6:39 PM EST
Astronomical Twilight 5:09 AM EST 7:11 PM EST
Moon 2:48 PM EST (2/22) 4:24 AM EST (2/22)
Length of Visible Light 11h 54m
Length of Day
10h 59m
Waxing Gibbous, 90% of the Moon is Illuminated
Feb 22
Waxing Gibbous
Feb 25
Full
Mar 4
Last Quarter
Mar 11
New
Mar 19
First Quarter

Hourly Weather History & Observations

Time (EST) Temp. Windchill Dew Point Humidity Pressure Visibility Wind Dir Wind Speed Gust Speed Precip Events Conditions
12:51 AM 25.0 °F 12.2 °F 12.9 °F 60% 30.29 in 10.0 mi NNW 16.1 mph - N/A   Clear
1:51 AM 25.0 °F 15.5 °F 14.0 °F 63% 30.28 in 10.0 mi North 9.2 mph - N/A   Clear
2:51 AM 25.0 °F 15.5 °F 14.0 °F 63% 30.32 in 10.0 mi NNW 9.2 mph - N/A   Clear
3:51 AM 24.1 °F 15.2 °F 15.1 °F 69% 30.32 in 10.0 mi North 8.1 mph - N/A   Overcast
4:51 AM 23.0 °F 15.8 °F 15.1 °F 72% 30.34 in 10.0 mi North 5.8 mph - N/A   Overcast
5:51 AM 26.1 °F 15.6 °F 17.1 °F 69% 30.37 in 10.0 mi North 11.5 mph - N/A   Overcast
6:51 AM 26.1 °F 17.6 °F 18.0 °F 71% 30.39 in 10.0 mi North 8.1 mph - N/A   Overcast
7:51 AM 28.4 °F 19.1 °F 19.4 °F 69% 30.40 in 10.0 mi NNE 10.4 mph - N/A   Overcast
8:51 AM 28.9 °F 19.8 °F 19.0 °F 67% 30.40 in 10.0 mi NNE 10.4 mph - N/A   Mostly Cloudy
9:51 AM 30.0 °F 21.7 °F 19.0 °F 64% 30.39 in 10.0 mi NNE 9.2 mph - N/A   Mostly Cloudy
10:51 AM 33.8 °F 30.8 °F 19.4 °F 56% 30.40 in 10.0 mi NE 3.5 mph - N/A   Mostly Cloudy
11:51 AM 36.0 °F 33.3 °F 19.9 °F 52% 30.38 in 10.0 mi ENE 3.5 mph - N/A   Overcast
12:51 PM 37.0 °F 34.5 °F 19.9 °F 50% 30.35 in 10.0 mi Variable 3.5 mph - N/A   Overcast
1:51 PM 37.0 °F 33.3 °F 19.9 °F 50% 30.33 in 10.0 mi East 4.6 mph - N/A   Overcast
2:51 PM 37.9 °F 33.5 °F 21.9 °F 53% 30.31 in 10.0 mi Variable 5.8 mph - N/A   Overcast
3:51 PM 37.0 °F 31.0 °F 25.0 °F 62% 30.32 in 10.0 mi South 8.1 mph - N/A   Overcast
4:51 PM 36.0 °F 31.1 °F 26.1 °F 67% 30.32 in 10.0 mi SSE 5.8 mph - N/A   Overcast
5:51 PM 36.0 °F 32.1 °F 27.0 °F 70% 30.33 in 9.0 mi SE 4.6 mph - 0.00 in Snow Light Snow
6:51 PM 37.0 °F 33.3 °F 28.0 °F 70% 30.32 in 10.0 mi Variable 4.6 mph - 0.00 in   Overcast
7:19 PM 37.4 °F 32.8 °F 28.4 °F 70% 30.32 in 10.0 mi SE 5.8 mph - N/A   Overcast
7:51 PM 37.0 °F 32.4 °F 30.0 °F 76% 30.33 in 10.0 mi SE 5.8 mph - N/A   Overcast
8:51 PM 37.9 °F 32.7 °F 30.0 °F 73% 30.32 in 10.0 mi SE 6.9 mph - N/A   Overcast
9:51 PM 37.9 °F 34.4 °F 30.9 °F 76% 30.30 in 10.0 mi ESE 4.6 mph - N/A   Overcast
10:51 PM 37.9 °F 35.5 °F 32.0 °F 79% 30.29 in 10.0 mi ESE 3.5 mph - N/A   Overcast
11:51 PM 39.0 °F - 32.0 °F 76% 30.27 in 10.0 mi Calm Calm - N/A   Overcast